| time (UTC) | temp F | wind direction | speed MPH | gust MPH | rain 1hr in | rain 24hr in | rain mn in | humidity % | barometer mb |
| 20260902171541 | 80 | 142 | 0.0 | 6.0 | 0.00 | 0.00 | 0.00 | 30 | 1003.5 |
| 20260902170041 | 79 | 140 | 0.0 | 8.0 | 0.00 | 0.00 | 0.00 | 33 | 1003.7 |
| 20260902164540 | 78 | 142 | 1.0 | 9.0 | 0.00 | 0.00 | 0.00 | 33 | 1003.8 |
| 20260902163045 | 77 | 137 | 0.0 | 8.0 | 0.00 | 0.00 | 0.00 | 35 | 1003.9 |
| 20260902161526 | 76 | 125 | 0.0 | 11.0 | 0.00 | 0.00 | 0.00 | 37 | 1004.1 |
| 20260902160023 | 75 | 155 | 1.0 | 8.0 | 0.00 | 0.00 | 0.00 | 36 | 1004.1 |
| 20260902154523 | 74 | 177 | 0.0 | 6.0 | 0.00 | 0.00 | 0.00 | 38 | 1004.4 |
| 20260902153027 | 72 | 160 | 1.0 | 9.0 | 0.00 | 0.00 | 0.00 | 40 | 1004.7 |
| 20260902151522 | 70 | 246 | 0.0 | 0.0 | 0.00 | 0.00 | 0.00 | 45 | 1004.8 |
| 20260902150021 | 70 | 189 | 0.0 | 0.0 | 0.00 | 0.00 | 0.00 | 45 | 1004.9 |
| 20260902144532 | 67 | 126 | 0.0 | 0.0 | 0.00 | 0.00 | 0.00 | 51 | 1005.0 |
| 20260902143021 | 65 | 126 | 0.0 | 0.0 | 0.00 | 0.00 | 0.00 | 53 | 1005.0 |
| 20260902141511 | 62 | 126 | 0.0 | 0.0 | 0.00 | 0.00 | 0.00 | 55 | 1005.2 |
| 20260902140009 | 61 | 126 | 0.0 | 3.0 | 0.00 | 0.00 | 0.00 | 57 | 1005.4 |
| 20260902134511 | 59 | 113 | 0.0 | 0.0 | 0.00 | 0.00 | 0.00 | 59 | 1005.4 |
| 20260902133008 | 57 | 308 | 0.0 | 0.0 | 0.00 | 0.00 | 0.00 | 63 | 1005.5 |
| 20260902131509 | 56 | 307 | 0.0 | 0.0 | 0.00 | 0.00 | 0.00 | 65 | 1005.7 |
| 20260902130006 | 55 | 316 | 0.0 | 1.0 | 0.00 | 0.00 | 0.00 | 69 | 1005.7 |
| 20260902124507 | 56 | 248 | 0.0 | 0.0 | 0.00 | 0.00 | 0.00 | 68 | 1005.2 |
| 20260902123006 | 56 | 230 | 0.0 | 0.0 | 0.00 | 0.00 | 0.00 | 69 | 1005.1 |
| 20260902121548 | 56 | 232 | 0.0 | 0.0 | 0.00 | 0.00 | 0.00 | 69 | 1005.4 |
| 20260902120048 | 56 | 236 | 0.0 | 0.0 | 0.00 | 0.00 | 0.00 | 67 | 1005.4 |
| 20260902114535 | 57 | 236 | 0.0 | 0.0 | 0.00 | 0.00 | 0.00 | 65 | 1005.3 |
| 20260902113034 | 56 | 232 | 0.0 | 0.0 | 0.00 | 0.00 | 0.00 | 65 | 1005.2 |
| 20260902111534 | 56 | 229 | 0.0 | 0.0 | 0.00 | 0.00 | 0.00 | 70 | 1005.0 |
| 20260902110033 | 56 | 229 | 0.0 | 0.0 | 0.00 | 0.00 | 0.00 | 71 | 1004.9 |
| 20260902104533 | 55 | 231 | 0.0 | 0.0 | 0.00 | 0.00 | 0.00 | 73 | 1005.0 |
| 20260902103038 | 56 | 229 | 0.0 | 0.0 | 0.00 | 0.00 | 0.00 | 74 | 1004.7 |
| 20260902101529 | 56 | 229 | 0.0 | 0.0 | 0.00 | 0.00 | 0.00 | 73 | 1004.4 |
| 20260902100028 | 56 | 229 | 0.0 | 0.0 | 0.00 | 0.00 | 0.00 | 71 | 1004.6 |
| 20260902094513 | 57 | 229 | 0.0 | 0.0 | 0.00 | 0.00 | 0.00 | 70 | 1004.7 |
| 20260902093014 | 58 | 229 | 0.0 | 0.0 | 0.00 | 0.00 | 0.00 | 69 | 1004.8 |
| 20260902091523 | 58 | 221 | 0.0 | 0.0 | 0.00 | 0.00 | 0.00 | 69 | 1004.9 |
| 20260902090008 | 59 | 221 | 0.0 | 0.0 | 0.00 | 0.00 | 0.00 | 67 | 1005.0 |
| 20260902084509 | 59 | 131 | 0.0 | 0.0 | 0.00 | 0.00 | 0.00 | 65 | 1005.2 |
| 20260902083006 | 59 | 121 | 0.0 | 0.0 | 0.00 | 0.00 | 0.00 | 66 | 1005.2 |
| 20260902081505 | 59 | 121 | 0.0 | 0.0 | 0.00 | 0.00 | 0.00 | 67 | 1005.2 |
| 20260902080004 | 60 | 121 | 0.0 | 0.0 | 0.00 | 0.00 | 0.00 | 68 | 1005.0 |
| 20260902074545 | 60 | 122 | 0.0 | 0.0 | 0.00 | 0.00 | 0.00 | 68 | 1005.1 |
| 20260902073043 | 61 | 217 | 0.0 | 0.0 | 0.00 | 0.00 | 0.00 | 66 | 1005.3 |
| 20260902071550 | 61 | 222 | 0.0 | 0.0 | 0.00 | 0.00 | 0.00 | 66 | 1005.4 |
| 20260902070029 | 62 | 261 | 0.0 | 0.0 | 0.00 | 0.00 | 0.00 | 64 | 1005.4 |
| 20260902064529 | 61 | 277 | 1.0 | 7.0 | 0.00 | 0.00 | 0.00 | 65 | 1005.6 |
| 20260902063034 | 61 | 266 | 0.0 | 0.0 | 0.00 | 0.00 | 0.00 | 63 | 1005.5 |
| 20260902061540 | 61 | 271 | 0.0 | 0.0 | 0.00 | 0.00 | 0.00 | 66 | 1005.4 |
| 20260902060032 | 61 | 271 | 0.0 | 0.0 | 0.00 | 0.00 | 0.00 | 66 | 1005.4 |
| 20260902054535 | 61 | 271 | 0.0 | 2.0 | 0.00 | 0.00 | 0.00 | 65 | 1005.4 |
| 20260902053023 | 62 | 213 | 0.0 | 0.0 | 0.00 | 0.00 | 0.00 | 61 | 1005.2 |
| 20260902051505 | 64 | 252 | 0.0 | 0.0 | 0.00 | 0.00 | 0.00 | 58 | 1005.0 |
| 20260902050003 | 65 | 257 | 0.0 | 0.0 | 0.00 | 0.00 | 0.00 | 54 | 1005.2 |
| 20260902044501 | 64 | 257 | 0.0 | 1.0 | 0.00 | 0.00 | 0.00 | 54 | 1005.2 |
| 20260902043100 | 65 | 259 | 0.0 | 0.0 | 0.00 | 0.00 | 0.00 | 53 | 1005.1 |
| 20260902041600 | 66 | 267 | 0.0 | 0.0 | 0.00 | 0.00 | 0.00 | 52 | 1005.4 |
| 20260902040057 | 67 | 267 | 0.0 | 0.0 | 0.00 | 0.00 | 0.00 | 49 | 1005.2 |
| 20260902034549 | 68 | 267 | 0.0 | 0.0 | 0.00 | 0.00 | 0.00 | 47 | 1005.1 |
| 20260902033045 | 70 | 262 | 0.0 | 0.0 | 0.00 | 0.00 | 0.00 | 42 | 1004.9 |
| 20260902031543 | 71 | 262 | 0.0 | 0.0 | 0.00 | 0.00 | 0.00 | 40 | 1004.6 |
| 20260902030028 | 72 | 262 | 0.0 | 1.0 | 0.00 | 0.00 | 0.00 | 39 | 1004.5 |
| 20260902024526 | 73 | 264 | 0.0 | 0.0 | 0.00 | 0.00 | 0.00 | 36 | 1004.5 |
| 20260902023022 | 74 | 265 | 0.0 | 0.0 | 0.00 | 0.00 | 0.00 | 36 | 1004.4 |
| 20260902021526 | 75 | 267 | 0.0 | 0.0 | 0.00 | 0.00 | 0.00 | 34 | 1004.2 |
| 20260902020017 | 76 | 272 | 0.0 | 0.0 | 0.00 | 0.00 | 0.00 | 31 | 1004.0 |
| 20260902014522 | 77 | 284 | 0.0 | 0.0 | 0.00 | 0.00 | 0.00 | 30 | 1004.0 |
| 20260902013011 | 78 | 288 | 0.0 | 0.0 | 0.00 | 0.00 | 0.00 | 31 | 1004.0 |
| 20260902011610 | 79 | 296 | 0.0 | 0.0 | 0.00 | 0.00 | 0.00 | 31 | 1004.0 |
| 20260902010116 | 79 | 281 | 0.0 | 0.0 | 0.00 | 0.00 | 0.00 | 30 | 1004.1 |
| 20260902004551 | 78 | 285 | 0.0 | 0.0 | 0.00 | 0.00 | 0.00 | 32 | 1004.2 |
| 20260902003037 | 79 | 316 | 0.0 | 2.0 | 0.00 | 0.00 | 0.00 | 32 | 1004.1 |
| 20260902001534 | 80 | 292 | 0.0 | 10.0 | 0.00 | 0.00 | 0.00 | 31 | 1004.2 |
| 20260902000041 | 83 | 285 | 4.0 | 16.0 | 0.00 | 0.00 | 0.00 | 28 | 1004.2 |
| 20260901234528 | 84 | 259 | 2.0 | 11.0 | 0.00 | 0.00 | 0.00 | 26 | 1004.3 |
| 20260901233027 | 83 | 253 | 0.0 | 7.0 | 0.00 | 0.00 | 0.00 | 28 | 1004.3 |
| 20260901231528 | 83 | 249 | 0.0 | 8.0 | 0.00 | 0.00 | 0.00 | 28 | 1004.4 |
| 20260901230030 | 84 | 252 | 0.0 | 9.0 | 0.00 | 0.00 | 0.00 | 26 | 1004.5 |
| 20260901224534 | 85 | 246 | 1.0 | 7.0 | 0.00 | 0.00 | 0.00 | 24 | 1004.5 |
| 20260901223025 | 86 | 283 | 0.0 | 1.0 | 0.00 | 0.00 | 0.00 | 22 | 1004.4 |
| 20260901221508 | 85 | 250 | 0.0 | 8.0 | 0.00 | 0.00 | 0.00 | 23 | 1004.5 |
| 20260901220006 | 87 | 253 | 0.0 | 1.0 | 0.00 | 0.00 | 0.00 | 23 | 1004.6 |
| 20260901214503 | 85 | 315 | 0.0 | 4.0 | 0.00 | 0.00 | 0.00 | 22 | 1004.8 |
| 20260901213001 | 85 | 203 | 0.0 | 3.0 | 0.00 | 0.00 | 0.00 | 23 | 1004.9 |
| 20260901211559 | 84 | 269 | 0.0 | 2.0 | 0.00 | 0.00 | 0.00 | 23 | 1005.1 |
| 20260901210057 | 84 | 229 | 0.0 | 0.0 | 0.00 | 0.00 | 0.00 | 24 | 1005.1 |
| 20260901204555 | 84 | 293 | 0.0 | 0.0 | 0.00 | 0.00 | 0.00 | 24 | 1005.3 |
| 20260901203035 | 83 | 187 | 0.0 | 4.0 | 0.00 | 0.00 | 0.00 | 25 | 1005.5 |
| 20260901201534 | 83 | 246 | 0.0 | 4.0 | 0.00 | 0.00 | 0.00 | 26 | 1005.6 |
| 20260901200039 | 83 | 275 | 0.0 | 5.0 | 0.00 | 0.00 | 0.00 | 28 | 1005.7 |
| 20260901194521 | 83 | 248 | 1.0 | 9.0 | 0.00 | 0.00 | 0.00 | 29 | 1005.9 |
| 20260901193020 | 83 | 186 | 0.0 | 9.0 | 0.00 | 0.00 | 0.00 | 30 | 1005.9 |
| 20260901191525 | 82 | 197 | 0.0 | 8.0 | 0.00 | 0.00 | 0.00 | 31 | 1006.3 |
| 20260901190014 | 81 | 200 | 0.0 | 4.0 | 0.00 | 0.00 | 0.00 | 34 | 1006.5 |
| 20260901184512 | 81 | 145 | 0.0 | 0.0 | 0.00 | 0.00 | 0.00 | 35 | 1006.7 |
| 20260901183012 | 81 | 147 | 0.0 | 5.0 | 0.00 | 0.00 | 0.00 | 33 | 1007.0 |
| 20260901181507 | 81 | 129 | 0.0 | 3.0 | 0.00 | 0.00 | 0.00 | 36 | 1007.2 |
| 20260901180047 | 80 | 12 | 0.0 | 1.0 | 0.00 | 0.00 | 0.00 | 35 | 1007.6 |
| 20260901174557 | 77 | 306 | 0.0 | 0.0 | 0.00 | 0.00 | 0.00 | 35 | 1007.7 |
| 20260901173026 | 76 | 319 | 0.0 | 0.0 | 0.00 | 0.00 | 0.00 | 35 | 1008.1 |